Regional Weather Roundup
Issued by NWS Northern Indiana

Home | Current Version | Previous Version | Graphics & Text | Print | Product List | Glossary On
Versions: 1 2 3 4 5 6 7 8 9 10 11 12 13 14 15 16 17 18 19 20 21 22 23 24 25 26 27 28 29 30 31 32 33 34 35 36 37 38 39 40 41 42 43 44 45 46 47 48 49 50
000
ASUS43 KIWX 180910
RWRIWX

KIWX WEATHER ROUNDUP
NATIONAL WEATHER SERVICE NORTHERN INDIANA
500 AM EDT FRI APR 18 2014

NOTE: "FAIR" INDICATES FEW OR NO CLOUDS BELOW 12,000 FEET WITH NO
SIGNIFICANT WEATHER AND/OR OBSTRUCTIONS TO VISIBILITY.

* THESE STATIONS ARE NOT UNDER NWS QUALITY CONTROL. THEY ALSO MAY NOT
  REPORT WEATHER SUCH AS PRECIPITATION OR FOG.

INZ001>027-181000-
NORTHERN INDIANA

CITY           SKY/WX    TMP DP  RH WIND       PRES   REMARKS
GARY*          CLOUDY    47  42  81 W3        30.23F
VALPARAISO     CLOUDY    48  41  76 CALM      30.24S
MICHIGAN CITY* CLOUDY    45  37  76 CALM      30.24S
LAPORTE*       CLOUDY    46  42  86 CALM      30.24S
SOUTH BEND     CLOUDY    47  42  83 CALM      30.24F
GOSHEN         CLOUDY    49  41  74 NW3       30.24R
MONTICELLO*    CLOUDY    47  41  79 CALM      30.24S
LOGANSPORT*    CLOUDY    48  37  66 CALM      30.26R
ROCHESTER*     CLOUDY    50  41  71 CALM      30.25S
WARSAW*        CLOUDY    46  39  76 CALM      30.24S
ANGOLA*        CLEAR     46  39  76 CALM      30.24S
FORT WAYNE     MOCLDY    45  35  68 CALM      30.25S
HUNTINGTON*    FAIR      44  40  83 SW3       30.24S
PERU/GRISSOM   CLOUDY    45  43  93 SW3       30.25R
MARION*        MOCLDY    41  34  76 CALM      30.25S

$$
INZ028>050-181000-
CENTRAL INDIANA

CITY           SKY/WX    TMP DP  RH WIND       PRES   REMARKS
LAFAYETTE      CLOUDY    48  40  73 CALM      30.25S
KOKOMO*        MOCLDY    43  36  75 S3        30.25S
MUNCIE*        CLEAR     43  35  73 NW6       30.25R
INDIANAPOLIS   PTCLDY    47  35  63 N3        30.26R

$$
MIZ043>046-050>051-056>058-064>065-071>073-077>080-181000-
SOUTHWEST LOWER MICHIGAN

CITY           SKY/WX    TMP DP  RH WIND       PRES   REMARKS
BATTLE CREEK   LGT RAIN  46  44  93 CALM      30.24F FOG
BENTON HARBOR  CLOUDY    44  39  82 CALM      30.23F
COLDWATER*     CLOUDY    46  40  79 CALM      30.24S
HILLSDALE*     CLOUDY    50  38  63 NW3       30.24R
HOLLAND        CLOUDY    44  37  76 W5        30.26R
GRAND RAPIDS   CLOUDY    46  37  71 CALM      30.24F
KALAMAZOO      CLOUDY    47  44  90 CALM      30.24S
STURGIS*       RAIN      46  43  87 CALM      30.23S
THREE RIVERS*  LGT RAIN  46  42  85 CALM      30.24F

$$
OHZ001>008-015>018-024>025-181000-
NORTHWEST OHIO

CITY           SKY/WX    TMP DP  RH WIND       PRES   REMARKS
WAUSEON*       FAIR      46  37  71 W6        30.24R
DEFIANCE       MOCLDY    44  35  70 CALM      30.24S
FINDLAY        CLEAR     45  35  68 S6        30.23R
TOLEDO EXPRESS MOCLDY    43  35  73 CALM      30.23R
TOLEDO METCALF PTCLDY    47  36  65 SW5       30.23F
LIMA           CLEAR     47  34  60 SW5       30.24S

$$
&&



USA.gov is the U.S. government's official web portal to all federal, state and local government web resources and services.